Regional Weather Roundup
Issued by NWS

Home | Current Version | Previous Version | Text Only | Print | Product List | Glossary On
Versions: 1 2 3 4 5 6 7 8 9 10 11 12 13 14 15 16 17 18 19 20 21 22 23 24 25 26 27 28 29 30 31 32 33 34 35 36 37 38 39 40 41 42 43 44 45 46 47 48 49 50
000
ASUS45 KPSR 250410
RWRAZ

ARIZONA HOURLY REGIONAL WEATHER ROUNDUP
NATIONAL WEATHER SERVICE PHOENIX AZ
900 PM MST SUN MAY 24 2015

NOTE: FAIR INDICATES FEW OR NO CLOUDS BELOW 12,000 FEET WITH NO
SIGNIFICANT WEATHER AND/OR OBSTRUCTIONS TO VISIBILITY.

AZZ001>003-036-250500-
NORTHWEST ARIZONA

CITY           SKY/WX    TMP DP  RH WIND       PRES   REMARKS
BULLHEAD CITY  MOCLDY    84  41  21 S15G22    29.77R
KINGMAN        MOCLDY    69  37  30 SW9       29.91R
$$

AZZ004>008-015-016-018-250500-
NORTH CENTRAL ARIZONA

CITY           SKY/WX    TMP DP  RH WIND       PRES   REMARKS
GRAND CANYON   LGT RAIN  48  45  89 SW5       30.05R
WILLIAMS       CLOUDY    48  43  81 NE5       30.13R
PRESCOTT       PTCLDY    58  33  39 W7        30.00R
FLAGSTAFF      MOCLDY    43  42  97 CALM      30.07R
PAYSON         PTCLDY    57  39  51 NE5       30.02R
PAGE           MOCLDY    63  46  54 CALM      29.91R
$$

AZZ009>014-017-250500-
NORTHEAST ARIZONA

CITY           SKY/WX    TMP DP  RH WIND       PRES   REMARKS
WINSLOW        MOCLDY    56  43  61 S12       29.99R
SAINT JOHNS    MOCLDY    53  39  59 E5        30.03R
WINDOW ROCK    CLOUDY    50  40  68 W10       30.05R
SHOW LOW       MOCLDY    46  34  61 SE6       30.07S
$$

AZZ023-250500-
GREATER PHOENIX AREA

CITY           SKY/WX    TMP DP  RH WIND       PRES   REMARKS
PHOENIX        CLEAR     80  37  21 W5        29.82R
BUCKEYE        CLEAR     73  41  31 SW6       29.84R
LUKE AFB       CLEAR     77  42  28 SW3       29.82R
DEER VALLEY    CLEAR     76  33  21 S3        29.84R
SCOTTSDALE     CLEAR     77  35  21 CALM      29.85R
MESA-GATEWAY   PTCLDY    75  37  25 NW6       29.86R
CHANDLER       CLEAR     77  37  24 W9        29.84R
$$

AZZ027-028-250500-
SOUTHWEST MARICOPA COUNTY AND PINAL COUNTY

CITY           SKY/WX    TMP DP  RH WIND       PRES   REMARKS
CASA GRANDE    CLEAR     73  39  29 NW5       29.84R
GILA BEND      FAIR      76  42  29 SW6       29.82R
$$

AZZ503-504-507>509-250500-
SOUTHEAST ARIZONA

CITY           SKY/WX    TMP DP  RH WIND       PRES   REMARKS
TUCSON         CLEAR     74  31  20 NW8       29.91R
DAVIS-MONTHAN  CLEAR     72  33  23 NW7       29.90R
NOGALES        CLEAR     59  30  33 E6        29.97R
SIERRA VISTA   CLEAR     56  42  60 SW8       30.01S
DOUGLAS        PTCLDY    61  29  29 CALM      29.98R
SAFFORD        MOCLDY    71  32  23 SW7       29.91R
$$

AZZ020-021-025-026-031-250500-
SOUTHWEST ARIZONA

CITY           SKY/WX    TMP DP  RH WIND       PRES   REMARKS
YUMA           CLEAR     80  43  26 S3        29.81R
$$

CAZ031-033-041-043-047-048-061-250500-
SOUTHERN CALIFORNIA

CITY           SKY/WX    TMP DP  RH WIND       PRES   REMARKS
DOWNTOWN L.A.  CLEAR     62  51  67 VRB5      29.96R
L.A. AIRPORT   PTCLDY    60  55  83 W9        29.97R
SAN DIEGO      PTCLDY    63  54  72 NW8       29.98R
BURBANK        CLEAR     63  48  58 S6        29.95R
ONTARIO        PTCLDY    64  51  62 SW8       29.95R
RIVERSIDE      CLEAR     65  52  62 W3        29.95R
PALM SPRINGS   CLEAR     77  48  35 NW9       29.82R
EL CENTRO NAS  CLEAR     77  49  37 SW14      29.81R
IMPERIAL       CLEAR     77  50  38 W10       29.79R
BLYTHE         CLEAR     80  42  25 S6        29.79R
NEEDLES        PTCLDY    83  39  21 SW14G23   29.78R
$$

NVZ020-UTZ003-250500-
SOUTHERN NEVADA-UTAH

CITY           SKY/WX    TMP DP  RH WIND       PRES   REMARKS
LAS VEGAS      CLOUDY    74  50  42 N9        29.79R
SALT LAKE CITY CLOUDY    61  47  59 N10       29.90R
$$

NMZ009-TXZ055-250500-
NEW MEXICO-WEST TEXAS

CITY           SKY/WX    TMP DP  RH WIND       PRES   REMARKS
ALBUQUERQUE    CLOUDY    54  45  71 S12       30.00R
EL PASO        MOCLDY    77  16  10 W15       29.86R
$$


........................KEY........................
SKY/WX - SKY CONDITION/WEATHER
TMP    - TEMPERATURE IN FAHRENHEIT
DP     - DEW POINT IN FAHRENHEIT
RH     - RELATIVE HUMIDITY IN PERCENT
WIND   - DIRECTION AND SPEED IN MILES PER HOUR (MPH)
VRB    - VARIABLE WIND DIRECTION
PRES   - MEAN SEA LEVEL PRESSURE IN INCHES OF MERCURY
         F - FALLING PRESSURE   R - RISING PRESSURE
         S - STEADY PRESSURE
VSB    - VISIBILITY IN MILES
HX     - HEAT INDEX IN FAHRENHEIT
WCI    - WIND CHILL INDEX IN FAHRENHEIT
TC     - TEMPERATURE IN CELSIUS WHICH IS ALSO KNOWN AS
         TEMPERATURE IN CENTIGRADE
AFB    - AIR FORCE BASE
         LUKE AFB IS LUKE AIR FORCE BASE
         DAVIS-MONTHAN IS DAVIS-MONTHAN AIR FORCE BASE
NAS    - NAVAL AIR STATION
         EL CENTRO NAS IS EL CENTRO NAVAL AIR STATION
N/A    - NOT AVAILABLE




USA.gov is the U.S. government's official web portal to all federal, state and local government web resources and services.